アトラス彗星

C/2024 L5 ( ATLAS )

English version
Home page
Updated on September 27, 2024

---------------------------------------------------------------------

・ プロフィール

発見日 2024年6月14日
発見光度 17.6等
発見者 Asteroid Terrestrial-Impact Last Alert System (ATLAS) search program

・ 写真集

・ 軌道要素

Epoch 2024 Oct. 17.0 TT = JDT 2460600.5
T 2025 Mar. 10.49417 TT                                 Rudenko
q   3.4317531            (2000.0)            P               Q
z  -0.0108676      Peri.  290.53147     -0.86093788     -0.48552598
 +/-0.0000545      Node   139.16843     -0.33544304     +0.76620077
e   1.0372949      Incl.  166.57312     -0.38244468     +0.42095236
>From 207 observations 2024 June 14-Sept. 1, mean residual 0".5.

・ 星図

・ 光度変化

        m1 = 8.5 + 5 logΔ + 10.0 log r

---------------------------------------------------------------------

軌道要素はM.P.E.C. 2024-R10に掲載されたものです。
星図はステラナビゲータ Ver.11 (アストロアーツ) で作成したものです。
光度グラフはComet for Windowsで作成したものです。

---------------------------------------------------------------------

Copyright(C) Seiichi Yoshida (comet@aerith.net). All rights reserved.